Canton, MA

3:00 PM EST on January 24, 2017 (GMT -0500)
East Milton

Weather History for KMQE - March, 2013

Change the Weather History Date:

Thursday, March 28, 2013

  Actual Average (KOWD) Record (KOWD)
Temperature  
Mean Temperature 40 °F -  
Max Temperature 46 °F 48 °F 86 °F (1998)
Min Temperature 35 °F 32 °F 21 °F (2006)
Degree Days  
Heating Degree Days 25    
Moisture  
Dew Point 30 °F    
Average Humidity 69    
Maximum Humidity 92    
Minimum Humidity 49    
Precipitation  
Precipitation 0.01 in - - ()
Sea Level Pressure  
Sea Level Pressure 29.95 in    
Wind  
Wind Speed 9 mph (NNW)    
Max Wind Speed 13 mph    
Max Gust Speed 23 mph    
Averages and records for this station are not official NWS values.
T = Trace of Precipitation, MM = Missing Value Source: NWS Daily Summary

Daily Weather History Graph

Daily Weather History Graph

Search for Another Location

Airport or City:

Trip Planner

Search our weather history database for the weather conditions in past years. The results will help you decide how hot, cold, wet, or windy it might be!

Date:

Astronomy

Mar. 28, 2013 Rise Set
Actual Time 6:33 AM EDT 7:05 PM EDT
Civil Twilight 6:05 AM EDT 7:34 PM EDT
Nautical Twilight 5:32 AM EDT 8:07 PM EDT
Astronomical Twilight 4:58 AM EDT 8:41 PM EDT
Moon 8:57 PM EDT (3/28) 6:57 AM EDT (3/28)
Length of Visible Light 13h 28m
Length of Day
12h 32m
Full, 98% of the Moon is Illuminated
Mar 28
Full
Apr 3
Last Quarter
Apr 10
New
Apr 18
First Quarter
Apr 25
Full

Hourly Weather History & Observations

Time (EDT) Temp. Windchill Dew Point Humidity Pressure Visibility Wind Dir Wind Speed Gust Speed Precip Events Conditions
12:54 AM 37.9 °F 30.5 °F 30.0 °F 73% 29.87 in - NNW 11.5 mph 21.9 mph N/A   Unknown
1:54 AM 37.0 °F 28.9 °F 30.9 °F 79% 29.87 in - NNW 12.7 mph 23.0 mph N/A   Unknown
2:54 AM 36.0 °F 29.0 °F 32.0 °F 86% 29.87 in - NNW 9.2 mph 18.4 mph N/A   Unknown
3:54 AM 35.1 °F 27.9 °F 33.1 °F 92% 29.88 in - NNW 9.2 mph - 0.01 in   Unknown
4:54 AM 35.1 °F 27.9 °F 33.1 °F 92% 29.88 in - NNW 9.2 mph - N/A   Unknown
5:54 AM 35.1 °F 26.9 °F 33.1 °F 92% 29.90 in - NNW 11.5 mph 17.3 mph N/A   Unknown
6:54 AM 35.1 °F 26.4 °F 32.0 °F 89% 29.91 in - NNW 12.7 mph 17.3 mph N/A   Unknown
7:54 AM 36.0 °F 29.0 °F 32.0 °F 86% 29.93 in - North 9.2 mph 16.1 mph N/A   Unknown
8:54 AM 37.9 °F 32.1 °F 30.9 °F 76% 29.94 in - North 8.1 mph - N/A   Unknown
9:54 AM 42.1 °F 37.7 °F 30.0 °F 62% 29.94 in - NNE 6.9 mph - N/A   Unknown
10:54 AM 45.0 °F 41.2 °F 28.9 °F 53% 29.96 in - Variable 6.9 mph - N/A   Unknown
11:54 AM 44.1 °F 38.6 °F 26.1 °F 49% 29.96 in - NE 10.4 mph 16.1 mph N/A   Unknown
12:54 PM 44.1 °F 39.5 °F 27.0 °F 51% 29.96 in - NNE 8.1 mph - N/A   Unknown
1:54 PM 43.0 °F 39.5 °F 26.1 °F 51% 29.96 in - ENE 5.8 mph - N/A   Unknown
2:54 PM 43.0 °F 41.3 °F 28.0 °F 56% 29.96 in - East 3.5 mph - N/A   Unknown
3:54 PM 44.1 °F 41.5 °F 28.0 °F 53% 29.97 in - Variable 4.6 mph - N/A   Unknown
4:54 PM 43.0 °F 40.3 °F 28.9 °F 58% 29.98 in - ENE 4.6 mph - N/A   Unknown
5:54 PM 41.0 °F - 30.0 °F 65% 29.99 in - Calm Calm - N/A   Unknown
6:54 PM 41.0 °F 37.1 °F 30.0 °F 65% 30.00 in - West 5.8 mph - N/A   Unknown
7:54 PM 41.0 °F 36.4 °F 30.0 °F 65% 30.02 in - West 6.9 mph - N/A   Unknown
8:54 PM 41.0 °F 37.1 °F 30.0 °F 65% 30.03 in - WSW 5.8 mph - N/A   Unknown
9:54 PM 41.0 °F 35.8 °F 30.0 °F 65% 30.04 in - West 8.1 mph - N/A   Unknown
10:54 PM 39.9 °F 34.5 °F 30.0 °F 68% 30.03 in - WNW 8.1 mph - N/A   Unknown
11:54 PM 39.9 °F 34.5 °F 30.0 °F 68% 30.03 in - WNW 8.1 mph - N/A   Unknown